Weather in Panteleymonovka

Russia / Primorsky Krai     45°38′10″N   133°35′33″E
temp.,
°C
wind,
m/s
gust,
m/s
humid.,
%
clouds,
%
prec.,
mm/h
press.,
hPa
HPBL,
m
24 january, mon
mon2401:00−20ssw3499100 0.1 102871
04:00−21ssw3410046 0.1 102844
07:00−24ssw2210022 0.0 102823
10:00−21ssw349956 0.0 102989
13:00−13wsw348692 0.0 1028432
16:00−12sw338798 0.0 1027386
19:00−20ssw231005 0.0 102730
22:00−21s3310020 0.0 102734
25 january, tue
tue2501:00−23s2210054 0.0 102627
04:00−25s2210073 0.0 102613
07:00−25se1110048 0.0 10269
10:00−21s119765 0.0 102634
13:00−14nw108971 0.0 1024185
16:00−12nne118736 0.0 1023197
19:00−19ne111005 0.0 10239
22:00−22ne1110048 0.0 10239
26 january, wed
wed2601:00−23ne1110098 0.0 10239
04:00−22ne11100100 0.0 10239
07:00−22nne11100100 0.0 10239
10:00−18wnw009799 0.0 102453
13:00−13wnw1291100 0.0 1023265
16:00−10nw2387100 0.1 1022479
19:00−13w229797 0.2 102429
22:00−15wsw2298100 0.3 102418
27 january, thu
thu2701:00−15ssw229899 0.3 102529
04:00−14ssw2497100 0.5 102574
07:00−18wsw1299100 0.1 102515
10:00−16wsw249880 0.1 1026120
13:00−12wnw5885100 0.0 1026669
16:00−11w3587100 0.1 1024647
19:00−16s2297100 0.1 102432
22:00−17s3310095 0.2 102444
28 january, fri
fri2801:00−21s3610093 0.0 102364
04:00−22s36100100 0.0 102273
07:00−20s3699100 0.0 102079
10:00−16sw489479 0.0 1019276
13:00−12w5788100 0.1 1017711
16:00−11nw5785100 0.5 10161061
19:00−19w229262 0.1 10179
22:00−22sw22100100 0.1 101725